sat.trackr.live / text

‹ back to catalog

SPACEMOBILE-004

NORAD 61049 · 2024-163E

PAYLOAD ACTIVE UNKNOWN

§ Identity

Operator
Country
US
Launch date
2024-09-12
Launch site
AFETR
Launch vehicle
Mass (kg)
RCS (m²)

External: N2YO · Heavens-Above · Gunter

§ Orbital elements

Epoch: 2026-05-24T01:09:31.066272Z

Period
94.69 min
Inclination
52.9764°
Eccentricity
0.0010470
Mean motion
15.20818789 rev/d
Perigee alt
496.2 km
Apogee alt
510.6 km
Semi-major
6,881.5 km
B*
7.8223e-4
RAAN
59.9333°
Arg perigee
70.4921°
Mean anomaly
289.7203°
Rev number
9,409

§ Raw data

SPACEMOBILE-0041 61049U 24163E   26144.04827623  .00017209  00000+0  78223-3 0  99982 61049  52.9764  59.9333 0010470  70.4921 289.7203 15.20818789 94094

JSON: /api/v1/satellites/61049 · /tle

For live sub-satellite position, see the globe view (requires WebGL).

§ Visibility from observer

Set your observer location to see the next 7 days of passes ≥ 10°. The values pass through the URL so the page stays shareable.

No JS? Fill the form by hand. The geolocation button needs JavaScript.

§ Radio — SatNOGS DB

ModeDescriptionDownlinkUplink
GFSK Mode U - Transmitter 432.300 MHz
BPSK S-band telemetry 2.235 GHz

2 transmitters · refreshed weekly from db.satnogs.org